Total_Precipitation_Accumulation
0.00 0.01 0.02 0.03 0.03 0.04 0.08 0.10 0.15 0.19 0.16 0.20 0.36 0.55 0.59 0.77 1.07 1.38 1.73 1.97 2.31 2.63 3.01 3.43 3.53 3.78 4.08 4.69 5.15 5.38 5.39 5.21 4.91 4.51 4.13 3.97 3.89 3.85 3.71 3.57 3.39 3.27 3.20 3.28
0.01 0.03 0.02 0.02 0.02 0.04 0.07 0.11 0.16 0.18 0.16 0.19 0.37 0.57 0.67 1.01 1.33 1.39 1.57 1.71 1.90 2.34 2.67 3.00 3.20 3.30 3.69 4.28 4.71 4.87 4.64 4.53 4.36 4.11 4.01 4.00 4.20 3.92 3.70 3.59 3.42 3.15 3.10 3.21
0.03 0.04 0.02 0.02 0.02 0.03 0.05 0.08 0.12 0.18 0.18 0.25 0.39 0.73 0.94 1.16 1.29 1.33 1.43 1.58 1.70 1.98 2.30 2.61 2.76 2.93 3.13 3.24 3.50 3.66 3.83 3.78 3.67 3.65 3.63 3.66 3.90 3.72 3.56 3.46 3.38 3.01 2.84 2.81
0.03 0.03 0.03 0.04 0.05 0.05 0.07 0.07 0.07 0.10 0.18 0.31 0.46 1.01 1.27 1.23 1.28 1.41 1.40 1.39 1.64 1.94 1.93 2.05 2.29 2.47 2.73 2.86 3.04 3.10 3.14 3.27 3.32 3.39 3.30 3.14 3.07 3.04 3.01 3.10 3.05 2.98 2.83 2.72
0.05 0.04 0.03 0.05 0.06 0.04 0.05 0.05 0.07 0.11 0.21 0.33 0.46 0.78 1.20 1.53 1.60 1.41 1.35 1.24 1.44 1.59 1.50 1.49 1.67 1.81 2.08 2.27 2.50 2.64 2.76 2.87 2.99 3.05 2.99 2.97 2.78 2.78 2.84 2.90 2.93 2.89 2.84 2.81
0.05 0.05 0.04 0.04 0.04 0.04 0.05 0.07 0.13 0.25 0.44 0.67 0.57 0.71 1.14 1.48 1.73 1.48 1.27 1.19 1.29 1.28 1.25 1.36 1.49 1.59 1.76 2.02 2.20 2.32 2.47 2.52 2.64 2.69 2.75 2.75 2.71 2.70 2.71 2.72 2.73 2.73 2.73 2.64
0.12 0.12 0.10 0.06 0.06 0.06 0.06 0.13 0.47 0.84 1.12 1.14 0.73 0.79 1.15 1.16 1.19 1.21 1.17 1.22 1.23 1.17 1.13 1.14 1.23 1.37 1.54 1.77 1.90 1.95 2.08 2.17 2.18 2.23 2.33 2.40 2.49 2.58 2.45 2.37 2.41 2.41 2.27 2.16
0.17 0.24 0.15 0.09 0.09 0.10 0.11 0.15 0.51 0.79 0.85 0.95 0.82 1.11 1.44 1.15 1.07 1.00 1.08 1.18 1.18 1.04 0.97 1.00 1.10 1.16 1.23 1.42 1.63 1.67 1.77 1.89 2.04 2.07 2.12 2.21 2.21 2.23 2.10 2.11 2.13 2.12 1.92 1.84
0.10 0.11 0.08 0.08 0.09 0.11 0.16 0.18 0.23 0.45 0.51 0.72 0.93 1.22 1.39 1.09 1.05 1.17 1.30 1.28 1.23 0.97 0.82 0.84 0.86 0.90 0.91 1.01 1.17 1.31 1.57 1.73 1.83 1.91 1.99 1.98 1.91 1.94 1.89 1.91 2.04 2.00 1.96 1.82
0.06 0.05 0.06 0.07 0.09 0.12 0.15 0.16 0.19 0.37 0.56 0.77 0.91 1.27 1.57 1.52 1.36 1.29 1.37 1.22 0.95 0.79 0.68 0.63 0.64 0.65 0.72 0.81 0.89 1.06 1.28 1.40 1.51 1.69 1.80 1.70 1.85 1.89 1.86 1.84 1.74 1.77 1.83 1.81
0.05 0.04 0.06 0.09 0.12 0.14 0.19 0.21 0.29 0.40 0.44 0.66 1.03 1.24 1.19 1.24 1.17 1.22 1.21 1.04 0.80 0.65 0.60 0.61 0.61 0.63 0.70 0.74 0.85 1.02 1.26 1.41 1.42 1.52 1.63 1.67 1.75 1.83 1.84 1.75 1.65 1.66 1.69 1.72
0.07 0.06 0.10 0.16 0.18 0.17 0.17 0.19 0.28 0.42 0.42 0.46 0.71 0.93 0.67 0.73 0.75 0.82 0.88 0.77 0.69 0.66 0.62 0.68 0.73 0.74 0.74 0.82 0.92 1.05 1.20 1.38 1.45 1.56 1.73 1.87 1.81 1.74 1.75 1.74 1.65 1.57 1.50 1.57
0.11 0.12 0.17 0.38 0.48 0.30 0.19 0.17 0.19 0.24 0.27 0.30 0.53 0.73 0.52 0.59 0.70 0.83 0.92 0.93 0.88 0.79 0.65 0.68 0.87 0.94 0.86 0.93 1.07 1.18 1.30 1.41 1.51 1.65 1.87 2.01 1.89 1.78 1.80 1.76 1.60 1.48 1.40 1.44
0.12 0.15 0.19 0.41 0.52 0.40 0.30 0.23 0.19 0.22 0.31 0.28 0.32 0.50 0.52 0.58 0.72 0.82 0.91 0.93 0.84 0.75 0.69 0.75 0.85 0.91 1.03 1.07 1.17 1.30 1.24 1.34 1.46 1.49 1.68 1.85 1.81 1.69 1.61 1.59 1.57 1.55 1.51 1.44
0.10 0.12 0.13 0.16 0.23 0.30 0.32 0.27 0.21 0.18 0.21 0.34 0.33 0.38 0.49 0.60 0.64 0.81 0.89 0.82 0.77 0.72 0.70 0.76 0.88 0.90 0.90 0.95 0.95 1.01 0.97 1.12 1.12 1.20 1.31 1.43 1.41 1.43 1.40 1.35 1.31 1.36 1.44 1.39
0.19 0.18 0.17 0.15 0.18 0.23 0.26 0.26 0.18 0.14 0.12 0.16 0.28 0.49 0.53 0.56 0.62 0.75 0.77 0.76 0.76 0.83 0.87 0.89 0.92 0.97 0.89 0.83 0.78 0.72 0.77 0.90 1.01 1.14 1.12 1.20 1.30 1.23 1.19 1.21 1.18 1.22 1.31 1.40
0.37 0.33 0.30 0.25 0.21 0.27 0.32 0.26 0.19 0.14 0.13 0.14 0.32 0.59 0.60 0.61 0.64 0.75 0.84 0.85 0.76 0.77 0.82 0.91 0.96 0.93 0.78 0.73 0.72 0.73 0.76 0.83 0.89 1.00 1.15 1.24 1.31 1.26 1.19 1.24 1.34 1.35 1.48 1.54
0.45 0.49 0.42 0.37 0.44 0.58 0.39 0.26 0.22 0.22 0.21 0.22 0.28 0.38 0.47 0.61 0.63 0.62 0.71 0.83 0.85 0.87 0.94 0.95 0.89 0.84 0.80 0.79 0.81 0.83 0.83 0.88 0.98 1.01 1.12 1.22 1.25 1.22 1.22 1.22 1.30 1.41 1.58 1.64
0.35 0.52 0.54 0.51 0.60 0.52 0.43 0.37 0.35 0.38 0.39 0.36 0.45 0.43 0.49 0.55 0.60 0.74 0.65 0.69 0.72 0.88 0.92 0.96 0.96 0.98 0.99 0.95 1.01 1.05 1.00 1.02 1.11 1.21 1.28 1.26 1.29 1.33 1.36 1.40 1.46 1.53 1.58 1.59
0.45 0.58 0.72 0.67 0.80 0.81 0.67 0.57 0.49 0.52 0.85 0.65 0.61 0.62 0.70 0.74 0.85 1.01 0.82 0.71 0.77 0.86 0.86 0.92 0.90 0.94 1.04 1.07 1.21 1.27 1.28 1.27 1.31 1.40 1.50 1.53 1.62 1.69 1.65 1.75 1.86 1.86 1.84 1.77
0.93 0.94 0.86 0.87 0.99 0.99 0.78 0.66 0.62 1.03 1.23 0.81 0.72 0.77 0.76 0.81 0.93 0.95 0.93 0.92 0.91 0.76 0.73 0.79 0.89 0.89 0.99 1.17 1.39 1.54 1.52 1.44 1.50 1.61 1.74 1.90 2.00 2.17 2.33 2.41 2.29 2.20 2.19 2.18
1.10 1.19 1.18 1.21 1.38 1.31 0.84 0.78 1.12 1.34 1.01 1.03 0.92 0.85 0.84 0.79 0.87 0.93 0.94 0.90 0.77 0.75 0.75 0.80 0.93 0.93 0.98 1.15 1.35 1.53 1.56 1.58 1.75 1.89 2.05 2.18 2.38 2.47 2.56 2.89 2.93 2.91 2.84 2.56
1.23 1.28 1.28 1.33 1.43 1.17 1.01 1.17 1.26 1.23 1.20 1.23 1.26 1.07 0.97 0.89 0.91 0.94 0.86 0.78 0.71 0.73 0.74 0.79 0.95 1.07 1.10 1.19 1.42 1.67 1.73 1.80 1.92 2.04 2.24 2.39 2.47 2.62 2.76 2.89 2.88 2.91 2.84 2.57
1.36 1.15 1.29 1.44 1.55 1.33 1.25 1.26 1.30 1.28 1.23 1.23 1.31 1.43 1.40 1.14 0.99 1.01 0.97 0.87 0.85 0.91 0.88 0.88 0.98 1.13 1.32 1.43 1.60 1.86 1.91 2.03 2.10 2.15 2.27 2.37 2.47 2.60 2.77 2.91 2.82 2.75 2.69 2.61
1.35 1.38 1.56 1.80 1.79 1.64 1.51 1.54 1.65 1.55 1.41 1.42 1.42 1.47 1.53 1.24 1.02 0.97 1.04 1.01 0.99 1.08 1.11 1.09 1.12 1.23 1.44 1.62 1.78 1.85 1.90 2.09 2.28 2.28 2.32 2.42 2.46 2.47 2.58 2.64 2.72 2.64 2.59 2.61
1.39 1.53 1.80 2.01 1.83 1.94 1.80 1.51 1.61 1.73 1.58 1.59 1.54 1.44 1.30 1.19 1.14 1.14 1.13 1.11 1.11 1.22 1.25 1.25 1.24 1.31 1.47 1.64 1.85 1.95 2.08 2.22 2.33 2.37 2.31 2.38 2.44 2.44 2.44 2.43 2.32 2.27 2.23 2.19